,,PA_Meas_PMT16A,,PR_Meas_QMR101_102,,RH_Meas_QMH101,,SR_Meas_QMS101,,TA_Meas_QMH101,,GenWind,,GenWind,
time,status,PA,status,PR,status,RH,status,SR,status,TA,status,DirAvg,status,SpdAvg,
2013-08-16, 00:00:04,VALID,918.844,VALID,0,VALID,96.0703,VALID,0,VALID,20.5609,VALID,322,VALID,0,
2013-08-16, 00:01:04,VALID,918.838,VALID,0,VALID,96.0779,VALID,0,VALID,20.5204,VALID,322,VALID,0,
2013-08-16, 00:02:04,VALID,918.843,VALID,0,VALID,96.0703,VALID,0,VALID,20.5009,VALID,322,VALID,0,
2013-08-16, 00:03:04,VALID,918.837,VALID,0,VALID,96.0779,VALID,0,VALID,20.5024,VALID,322,VALID,0,
2013-08-16, 00:04:04,VALID,918.802,VALID,0,VALID,96.0855,VALID,0,VALID,20.4618,VALID,322,VALID,0,
2013-08-16, 00:05:04,VALID,918.818,VALID,0,VALID,96.055,VALID,0,VALID,20.4439,VALID,322,VALID,0,
2013-08-16, 00:06:04,VALID,918.803,VALID,0,VALID,96.0703,VALID,0,VALID,20.4049,VALID,339,VALID,0,
2013-08-16, 00:07:04,VALID,918.813,VALID,0,VALID,96.0855,VALID,0,VALID,20.4049,VALID,3,VALID,0,
2013-08-16, 00:08:04,VALID,918.825,VALID,0,VALID,96.0932,VALID,0,VALID,20.3659,VALID,19,VALID,0,
2013-08-16, 00:09:04,VALID,918.797,VALID,0,VALID,96.0855,VALID,0,VALID,20.3269,VALID,18,VALID,0,
2013-08-16, 00:10:04,VALID,918.796,VALID,0,VALID,96.1236,VALID,0,VALID,20.3253,VALID,18,VALID,0,
2013-08-16, 00:11:04,VALID,918.778,VALID,0,VALID,96.1465,VALID,0,VALID,20.3074,VALID,19,VALID,0,
2013-08-16, 00:12:04,VALID,918.767,VALID,0,VALID,96.1541,VALID,0,VALID,20.2879,VALID,19,VALID,0,
2013-08-16, 00:13:04,VALID,918.763,VALID,0,VALID,96.1618,VALID,0,VALID,20.2879,VALID,19,VALID,0,
2013-08-16, 00:14:04,VALID,918.759,VALID,0,VALID,96.1846,VALID,0,VALID,20.2684,VALID,19,VALID,0,
2013-08-16, 00:15:04,VALID,918.759,VALID,0,VALID,96.1846,VALID,0,VALID,20.2489,VALID,19,VALID,0,
2013-08-16, 00:16:04,VALID,918.742,VALID,0,VALID,96.1923,VALID,0,VALID,20.2489,VALID,19,VALID,0,
2013-08-16, 00:17:04,VALID,918.754,VALID,0,VALID,96.2304,VALID,0,VALID,20.2489,VALID,19,VALID,0,
2013-08-16, 00:18:04,VALID,918.769,VALID,0,VALID,96.2685,VALID,0,VALID,20.2489,VALID,19,VALID,0,
2013-08-16, 00:19:04,VALID,918.752,VALID,0,VALID,96.2837,VALID,0,VALID,20.2489,VALID,19,VALID,0,
2013-08-16, 00:20:04,VALID,918.733,VALID,0,VALID,96.2914,VALID,0,VALID,20.2489,VALID,19,VALID,0,
2013-08-16, 00:21:04,VALID,918.7,VALID,0,VALID,96.3142,VALID,0,VALID,20.2293,VALID,19,VALID,0,
2013-08-16, 00:22:04,VALID,918.703,VALID,0,VALID,96.3142,VALID,0,VALID,20.2098,VALID,19,VALID,0,
2013-08-16, 00:23:04,VALID,918.691,VALID,0,VALID,96.3371,VALID,0,VALID,20.2098,VALID,19,VALID,0,
2013-08-16, 00:24:04,VALID,918.66,VALID,0,VALID,96.3371,VALID,0,VALID,20.2098,VALID,19,VALID,0,
2013-08-16, 00:25:04,VALID,918.641,VALID,0,VALID,96.3447,VALID,0,VALID,20.1919,VALID,19,VALID,0,
2013-08-16, 00:26:04,VALID,918.63,VALID,0,VALID,96.36,VALID,0,VALID,20.1513,VALID,19,VALID,0,
2013-08-16, 00:27:04,VALID,918.627,VALID,0,VALID,96.3752,VALID,0,VALID,20.1318,VALID,19,VALID,0,
2013-08-16, 00:28:04,VALID,918.658,VALID,0,VALID,96.3676,VALID,0,VALID,20.0928,VALID,19,VALID,0,
2013-08-16, 00:29:04,VALID,918.584,VALID,0,VALID,96.3829,VALID,0,VALID,20.0733,VALID,19,VALID,0,
2013-08-16, 00:30:04,VALID,918.631,VALID,0,VALID,96.3829,VALID,0,VALID,20.0538,VALID,19,VALID,0,
2013-08-16, 00:31:04,VALID,918.625,VALID,0,VALID,96.3829,VALID,0,VALID,20.0343,VALID,19,VALID,0,
2013-08-16, 00:32:04,VALID,918.657,VALID,0,VALID,96.4057,VALID,0,VALID,20.0148,VALID,19,VALID,0,
2013-08-16, 00:33:04,VALID,918.636,VALID,0,VALID,96.421,VALID,0,VALID,20.0148,VALID,19,VALID,0,
2013-08-16, 00:34:04,VALID,918.664,VALID,0,VALID,96.4362,VALID,0,VALID,19.9953,VALID,19,VALID,0,
2013-08-16, 00:35:04,VALID,918.634,VALID,0,VALID,96.4515,VALID,0,VALID,19.9563,VALID,19,VALID,0,
2013-08-16, 00:36:04,VALID,918.623,VALID,0,VALID,96.4667,VALID,0,VALID,19.9773,VALID,19,VALID,0,
2013-08-16, 00:37:04,VALID,918.589,VALID,0,VALID,96.4819,VALID,0,VALID,19.9368,VALID,19,VALID,0,
2013-08-16, 00:38:04,VALID,918.576,VALID,0,VALID,96.4972,VALID,0,VALID,19.9368,VALID,19,VALID,0,
2013-08-16, 00:39:04,VALID,918.572,VALID,0,VALID,96.4896,VALID,0,VALID,19.9368,VALID,19,VALID,0,
2013-08-16, 00:40:04,VALID,918.539,VALID,0,VALID,96.5124,VALID,0,VALID,19.9173,VALID,19,VALID,0,
2013-08-16, 00:41:04,VALID,918.479,VALID,0,VALID,96.5124,VALID,0,VALID,19.9173,VALID,19,VALID,0,
2013-08-16, 00:42:05,VALID,918.462,VALID,0,VALID,96.5506,VALID,0,VALID,19.8783,VALID,19,VALID,0,
2013-08-16, 00:43:05,VALID,918.454,VALID,0,VALID,96.5582,VALID,0,VALID,19.8993,VALID,19,VALID,0,
2013-08-16, 00:44:05,VALID,918.457,VALID,0,VALID,96.5582,VALID,0,VALID,19.8978,VALID,19,VALID,0,
2013-08-16, 00:45:05,VALID,918.432,VALID,0,VALID,96.5734,VALID,0,VALID,19.8783,VALID,19,VALID,0,
2013-08-16, 00:46:05,VALID,918.43,VALID,0,VALID,96.5734,VALID,0,VALID,19.8003,VALID,19,VALID,0,
2013-08-16, 00:47:05,VALID,918.431,VALID,0,VALID,96.5582,VALID,0,VALID,19.7418,VALID,19,VALID,0,
2013-08-16, 00:48:05,VALID,918.411,VALID,0,VALID,96.5658,VALID,0,VALID,19.7223,VALID,19,VALID,0,
2013-08-16, 00:49:05,VALID,918.417,VALID,0,VALID,96.5734,VALID,0,VALID,19.7223,VALID,19,VALID,0,
2013-08-16, 00:50:05,VALID,918.42,VALID,0,VALID,96.5963,VALID,0,VALID,19.7238,VALID,19,VALID,0,
2013-08-16, 00:51:05,VALID,918.414,VALID,0,VALID,96.6115,VALID,0,VALID,19.7223,VALID,19,VALID,0,
2013-08-16, 00:52:05,VALID,918.419,VALID,0,VALID,96.6268,VALID,0,VALID,19.7613,VALID,19,VALID,0,
2013-08-16, 00:53:05,VALID,918.418,VALID,0,VALID,96.6344,VALID,0,VALID,19.7808,VALID,19,VALID,0,
2013-08-16, 00:54:05,VALID,918.404,VALID,0,VALID,96.6497,VALID,0,VALID,19.8003,VALID,19,VALID,0,
2013-08-16, 00:55:05,VALID,918.394,VALID,0,VALID,96.6725,VALID,0,VALID,19.8003,VALID,19,VALID,0,
2013-08-16, 00:56:05,VALID,918.395,VALID,0,VALID,96.6649,VALID,0,VALID,19.8003,VALID,19,VALID,0,
2013-08-16, 00:57:05,VALID,918.421,VALID,0,VALID,96.6649,VALID,0,VALID,19.7808,VALID,19,VALID,0,
2013-08-16, 00:58:05,VALID,918.441,VALID,0,VALID,96.6649,VALID,0,VALID,19.7808,VALID,19,VALID,0,
2013-08-16, 00:59:05,VALID,918.409,VALID,0,VALID,96.6725,VALID,0,VALID,19.8018,VALID,19,VALID,0,
2013-08-16, 01:00:05,VALID,918.448,VALID,0,VALID,96.6802,VALID,0,VALID,19.8198,VALID,19,VALID,0,
2013-08-16, 01:01:05,VALID,918.432,VALID,0,VALID,96.6878,VALID,0,VALID,19.8603,VALID,19,VALID,0,
2013-08-16, 01:02:05,VALID,918.432,VALID,0,VALID,96.7107,VALID,0,VALID,19.8588,VALID,19,VALID,0,
2013-08-16, 01:03:05,VALID,918.437,VALID,0,VALID,96.7107,VALID,0,VALID,19.8783,VALID,19,VALID,0,
2013-08-16, 01:04:05,VALID,918.417,VALID,0,VALID,96.703,VALID,0,VALID,19.8783,VALID,19,VALID,0,
2013-08-16, 01:05:05,VALID,918.439,VALID,0,VALID,96.7183,VALID,0,VALID,19.8783,VALID,19,VALID,0,
2013-08-16, 01:06:05,VALID,918.406,VALID,0,VALID,96.7107,VALID,0,VALID,19.8978,VALID,19,VALID,0,
2013-08-16, 01:07:05,VALID,918.397,VALID,0,VALID,96.7335,VALID,0,VALID,19.8963,VALID,19,VALID,0,
2013-08-16, 01:08:05,VALID,918.402,VALID,0,VALID,96.7488,VALID,0,VALID,19.9368,VALID,19,VALID,0,
2013-08-16, 01:09:05,VALID,918.381,VALID,0,VALID,96.7183,VALID,0,VALID,19.9758,VALID,19,VALID,0,
2013-08-16, 01:10:05,VALID,918.367,VALID,0,VALID,96.7335,VALID,0,VALID,19.9968,VALID,18,VALID,0,
2013-08-16, 01:11:05,VALID,918.387,VALID,0,VALID,96.7564,VALID,0,VALID,19.9953,VALID,19,VALID,0,
2013-08-16, 01:12:05,VALID,918.336,VALID,0,VALID,96.7488,VALID,0,VALID,20.0148,VALID,18,VALID,0,
2013-08-16, 01:13:05,VALID,918.329,VALID,0,VALID,96.7411,VALID,0,VALID,20.0148,VALID,19,VALID,0,
2013-08-16, 01:14:05,VALID,918.29,VALID,0,VALID,96.7259,VALID,0,VALID,20.0358,VALID,19,VALID,0,
2013-08-16, 01:15:05,VALID,918.312,VALID,0,VALID,96.7488,VALID,0,VALID,20.0148,VALID,19,VALID,0,
2013-08-16, 01:16:05,VALID,918.279,VALID,0,VALID,96.7335,VALID,0,VALID,20.0343,VALID,19,VALID,0,
2013-08-16, 01:17:05,VALID,918.254,VALID,0,VALID,96.7488,VALID,0,VALID,20.0358,VALID,19,VALID,0,
2013-08-16, 01:18:05,VALID,918.259,VALID,0,VALID,96.7564,VALID,0,VALID,20.0148,VALID,19,VALID,0,
2013-08-16, 01:19:05,VALID,918.239,VALID,0,VALID,96.7488,VALID,0,VALID,20.0148,VALID,19,VALID,0,
2013-08-16, 01:20:05,VALID,918.228,VALID,0,VALID,96.7564,VALID,0,VALID,20.0148,VALID,19,VALID,0,
2013-08-16, 01:21:05,VALID,918.268,VALID,0,VALID,96.7488,VALID,0,VALID,20.0343,VALID,19,VALID,0,
2013-08-16, 01:22:05,VALID,918.264,VALID,0,VALID,96.7488,VALID,0,VALID,20.0553,VALID,19,VALID,0,
2013-08-16, 01:23:05,VALID,918.227,VALID,0,VALID,96.7716,VALID,0,VALID,20.0358,VALID,19,VALID,0,
2013-08-16, 01:24:05,VALID,918.191,VALID,0,VALID,96.7793,VALID,0,VALID,20.0749,VALID,19,VALID,0,
2013-08-16, 01:25:05,VALID,918.179,VALID,0,VALID,96.7411,VALID,0.107441,VALID,20.0733,VALID,19,VALID,0,
2013-08-16, 01:26:05,VALID,918.169,VALID,0,VALID,96.7488,VALID,0.107441,VALID,20.0928,VALID,19,VALID,0,
2013-08-16, 01:27:05,VALID,918.155,VALID,0,VALID,96.7564,VALID,0,VALID,20.0913,VALID,19,VALID,0,
2013-08-16, 01:28:05,VALID,918.126,VALID,0,VALID,96.7716,VALID,0,VALID,20.1108,VALID,19,VALID,0,
2013-08-16, 01:29:05,VALID,918.117,VALID,0,VALID,96.764,VALID,0,VALID,20.1108,VALID,19,VALID,0,
2013-08-16, 01:30:05,VALID,918.14,VALID,0,VALID,96.7869,VALID,0,VALID,20.1513,VALID,19,VALID,0,
2013-08-16, 01:31:05,VALID,918.087,VALID,0,VALID,96.7869,VALID,0,VALID,20.1108,VALID,19,VALID,0,
2013-08-16, 01:32:05,VALID,918.074,VALID,0,VALID,96.7716,VALID,0,VALID,20.1513,VALID,19,VALID,0,
2013-08-16, 01:33:05,VALID,918.101,VALID,0,VALID,96.7869,VALID,0.107441,VALID,20.1318,VALID,19,VALID,0,
2013-08-16, 01:34:05,VALID,918.087,VALID,0,VALID,96.7716,VALID,0,VALID,20.0718,VALID,19,VALID,0,
2013-08-16, 01:35:05,VALID,918.06,VALID,0,VALID,96.7411,VALID,0,VALID,19.9743,VALID,19,VALID,0,
2013-08-16, 01:36:05,VALID,918.042,VALID,0,VALID,96.7411,VALID,0.107441,VALID,19.9353,VALID,19,VALID,0,
2013-08-16, 01:37:05,VALID,918.03,VALID,0,VALID,96.764,VALID,0.107441,VALID,19.9548,VALID,19,VALID,0,
2013-08-16, 01:38:05,VALID,918.011,VALID,0,VALID,96.7564,VALID,0,VALID,19.9743,VALID,19,VALID,0,
2013-08-16, 01:39:05,VALID,917.986,VALID,0,VALID,96.7564,VALID,0,VALID,20.0133,VALID,19,VALID,0,
2013-08-16, 01:40:05,VALID,917.943,VALID,0,VALID,96.764,VALID,0,VALID,20.0343,VALID,19,VALID,0,
2013-08-16, 01:41:05,VALID,917.946,VALID,0,VALID,96.7793,VALID,0,VALID,20.0343,VALID,19,VALID,0,
2013-08-16, 01:42:05,VALID,917.921,VALID,0,VALID,96.7716,VALID,0,VALID,19.9938,VALID,19,VALID,0,
2013-08-16, 01:43:05,VALID,917.888,VALID,0,VALID,96.7716,VALID,0,VALID,19.9563,VALID,18,VALID,0,
2013-08-16, 01:44:05,VALID,917.905,VALID,0,VALID,96.7716,VALID,0,VALID,19.9173,VALID,19,VALID,0,
2013-08-16, 01:45:05,VALID,917.897,VALID,0,VALID,96.764,VALID,0,VALID,19.8783,VALID,19,VALID,0,
2013-08-16, 01:46:05,VALID,917.862,VALID,0,VALID,96.7564,VALID,0,VALID,19.8393,VALID,19,VALID,0,
2013-08-16, 01:47:05,VALID,917.826,VALID,0,VALID,96.7411,VALID,0,VALID,19.8003,VALID,19,VALID,0,
2013-08-16, 01:48:05,VALID,917.813,VALID,0,VALID,96.7411,VALID,0,VALID,19.7418,VALID,19,VALID,0,
2013-08-16, 01:49:05,VALID,917.794,VALID,0,VALID,96.7488,VALID,0,VALID,19.7223,VALID,19,VALID,0,
2013-08-16, 01:50:05,VALID,917.776,VALID,0,VALID,96.7411,VALID,0,VALID,19.6833,VALID,19,VALID,0,
2013-08-16, 01:51:05,VALID,917.763,VALID,0,VALID,96.7564,VALID,0,VALID,19.6833,VALID,19,VALID,0,
2013-08-16, 01:52:05,VALID,917.752,VALID,0,VALID,96.7488,VALID,0,VALID,19.6833,VALID,19,VALID,0,
2013-08-16, 01:53:05,VALID,917.725,VALID,0,VALID,96.7716,VALID,0,VALID,19.7028,VALID,19,VALID,0,
2013-08-16, 01:54:05,VALID,917.702,VALID,0,VALID,96.7869,VALID,0,VALID,19.7028,VALID,19,VALID,0,
2013-08-16, 01:55:05,VALID,917.679,VALID,0,VALID,96.764,VALID,0,VALID,19.6818,VALID,19,VALID,0,
2013-08-16, 01:56:05,VALID,917.697,VALID,0,VALID,96.7793,VALID,0.107441,VALID,19.6248,VALID,19,VALID,0,
2013-08-16, 01:57:05,VALID,917.678,VALID,0,VALID,96.7488,VALID,0.107441,VALID,19.5063,VALID,19,VALID,0,
2013-08-16, 01:58:05,VALID,917.679,VALID,0,VALID,96.7335,VALID,0,VALID,19.4673,VALID,19,VALID,0,
2013-08-16, 01:59:05,VALID,917.666,VALID,0,VALID,96.7716,VALID,0.107441,VALID,19.5078,VALID,19,VALID,0,
2013-08-16, 02:00:05,VALID,917.671,VALID,0,VALID,96.7869,VALID,0.107441,VALID,19.5453,VALID,19,VALID,0,
2013-08-16, 02:01:05,VALID,917.692,VALID,0,VALID,96.8174,VALID,0,VALID,19.5843,VALID,19,VALID,0,
2013-08-16, 02:02:05,VALID,917.668,VALID,0,VALID,96.8021,VALID,0.107441,VALID,19.5843,VALID,19,VALID,0,
2013-08-16, 02:03:05,VALID,917.659,VALID,0,VALID,96.8174,VALID,0,VALID,19.5843,VALID,19,VALID,0,
2013-08-16, 02:04:05,VALID,917.667,VALID,0,VALID,96.8479,VALID,0,VALID,19.5843,VALID,19,VALID,0,
2013-08-16, 02:05:05,VALID,917.673,VALID,0,VALID,96.8174,VALID,0,VALID,19.5663,VALID,19,VALID,0,
2013-08-16, 02:06:05,VALID,917.675,VALID,0,VALID,96.8098,VALID,0.107441,VALID,19.5258,VALID,19,VALID,0,
2013-08-16, 02:07:05,VALID,917.7,VALID,0,VALID,96.825,VALID,0.107441,VALID,19.5258,VALID,19,VALID,0,
2013-08-16, 02:08:05,VALID,917.707,VALID,0,VALID,96.8403,VALID,0,VALID,19.5453,VALID,19,VALID,0,
2013-08-16, 02:09:05,VALID,917.735,VALID,0,VALID,96.8479,VALID,0.107441,VALID,19.5843,VALID,19,VALID,0,
2013-08-16, 02:10:05,VALID,917.712,VALID,0,VALID,96.8479,VALID,0,VALID,19.5858,VALID,19,VALID,0,
2013-08-16, 02:11:05,VALID,917.697,VALID,0,VALID,96.8707,VALID,0,VALID,19.5873,VALID,19,VALID,0,
2013-08-16, 02:12:05,VALID,917.707,VALID,0,VALID,96.886,VALID,0,VALID,19.5663,VALID,19,VALID,0,
2013-08-16, 02:13:05,VALID,917.684,VALID,0,VALID,96.8707,VALID,0,VALID,19.5468,VALID,19,VALID,0,
2013-08-16, 02:14:05,VALID,917.686,VALID,0,VALID,96.886,VALID,0,VALID,19.5468,VALID,19,VALID,0,
2013-08-16, 02:15:05,VALID,917.689,VALID,0,VALID,96.8784,VALID,0,VALID,19.5468,VALID,19,VALID,0,
2013-08-16, 02:16:05,VALID,917.691,VALID,0,VALID,96.8936,VALID,0,VALID,19.5663,VALID,19,VALID,0,
2013-08-16, 02:17:05,VALID,917.658,VALID,0,VALID,96.8936,VALID,0,VALID,19.5873,VALID,19,VALID,0,
2013-08-16, 02:18:05,VALID,917.652,VALID,0,VALID,96.886,VALID,0,VALID,19.5873,VALID,19,VALID,0,
2013-08-16, 02:19:05,VALID,917.636,VALID,0,VALID,96.886,VALID,0,VALID,19.5468,VALID,19,VALID,0,
2013-08-16, 02:20:05,VALID,917.628,VALID,0,VALID,96.9165,VALID,0,VALID,19.5078,VALID,19,VALID,0,
2013-08-16, 02:21:05,VALID,917.63,VALID,0,VALID,96.886,VALID,0,VALID,19.5273,VALID,19,VALID,0,
2013-08-16, 02:22:05,VALID,917.639,VALID,0,VALID,96.9165,VALID,0,VALID,19.5483,VALID,19,VALID,0,
2013-08-16, 02:23:05,VALID,917.623,VALID,0,VALID,96.9165,VALID,0,VALID,19.5078,VALID,19,VALID,0,
2013-08-16, 02:24:05,VALID,917.602,VALID,0,VALID,96.9394,VALID,0,VALID,19.5273,VALID,19,VALID,0,
2013-08-16, 02:25:05,VALID,917.562,VALID,0,VALID,96.9241,VALID,0.107441,VALID,19.5063,VALID,19,VALID,0,
2013-08-16, 02:26:05,VALID,917.576,VALID,0,VALID,96.9317,VALID,0,VALID,19.5273,VALID,19,VALID,0,
2013-08-16, 02:27:05,VALID,917.562,VALID,0,VALID,96.9394,VALID,0,VALID,19.5063,VALID,19,VALID,0,
2013-08-16, 02:28:05,VALID,917.538,VALID,0,VALID,96.9241,VALID,0.107441,VALID,19.4673,VALID,19,VALID,0,
2013-08-16, 02:29:05,VALID,917.521,VALID,0,VALID,96.9317,VALID,0,VALID,19.4478,VALID,117,VALID,0,
2013-08-16, 02:30:05,VALID,917.502,VALID,0,VALID,96.947,VALID,0,VALID,19.4074,VALID,117,VALID,0,
2013-08-16, 02:31:05,VALID,917.481,VALID,0,VALID,96.9317,VALID,0,VALID,19.3908,VALID,117,VALID,0,
2013-08-16, 02:32:05,VALID,917.484,VALID,0,VALID,96.9546,VALID,0.107441,VALID,19.3698,VALID,116,VALID,0,
2013-08-16, 02:33:05,VALID,917.486,VALID,0,VALID,96.9622,VALID,0,VALID,19.3518,VALID,116,VALID,0,
2013-08-16, 02:34:05,VALID,917.48,VALID,0,VALID,96.9546,VALID,0,VALID,19.3308,VALID,116,VALID,0,
2013-08-16, 02:35:05,VALID,917.509,VALID,0,VALID,96.9546,VALID,0.107441,VALID,19.3308,VALID,114,VALID,0,
2013-08-16, 02:36:05,VALID,917.476,VALID,0,VALID,96.9622,VALID,0,VALID,19.3323,VALID,113,VALID,0,
2013-08-16, 02:37:05,VALID,917.505,VALID,0,VALID,96.9775,VALID,0,VALID,19.2918,VALID,113,VALID,0,
2013-08-16, 02:38:05,VALID,917.484,VALID,0,VALID,96.9698,VALID,0,VALID,19.2723,VALID,112,VALID,0,
2013-08-16, 02:39:05,VALID,917.461,VALID,0,VALID,96.9927,VALID,0.107441,VALID,19.2723,VALID,112,VALID,0,
2013-08-16, 02:40:05,VALID,917.454,VALID,0,VALID,96.9851,VALID,0,VALID,19.2753,VALID,113,VALID,0,
2013-08-16, 02:41:05,VALID,917.411,VALID,0,VALID,97.0003,VALID,0,VALID,19.2139,VALID,113,VALID,0,
2013-08-16, 02:42:05,VALID,917.407,VALID,0,VALID,97.0003,VALID,0,VALID,19.2558,VALID,114,VALID,0,
2013-08-16, 02:43:05,VALID,917.394,VALID,0,VALID,97.0003,VALID,0,VALID,19.2348,VALID,116,VALID,0,
2013-08-16, 02:44:05,VALID,917.382,VALID,0,VALID,97.008,VALID,0,VALID,19.2543,VALID,116,VALID,0,
2013-08-16, 02:45:05,VALID,917.38,VALID,0,VALID,97.0232,VALID,0,VALID,19.2348,VALID,110,VALID,0,
2013-08-16, 02:46:05,VALID,917.361,VALID,0,VALID,97.0003,VALID,0,VALID,19.2543,VALID,101,VALID,0,
2013-08-16, 02:47:05,VALID,917.378,VALID,0,VALID,97.0156,VALID,0,VALID,19.2948,VALID,107,VALID,0,
2013-08-16, 02:48:05,VALID,917.394,VALID,0,VALID,97.0232,VALID,0,VALID,19.2738,VALID,106,VALID,0,
2013-08-16, 02:49:05,VALID,917.368,VALID,0,VALID,97.0308,VALID,0,VALID,19.2738,VALID,106,VALID,0,
2013-08-16, 02:50:05,VALID,917.395,VALID,0,VALID,97.0461,VALID,0,VALID,19.2933,VALID,106,VALID,0,
2013-08-16, 02:51:05,VALID,917.397,VALID,0,VALID,97.0308,VALID,0,VALID,19.3338,VALID,106,VALID,0,
2013-08-16, 02:52:05,VALID,917.403,VALID,0,VALID,97.0461,VALID,0,VALID,19.3323,VALID,106,VALID,0,
2013-08-16, 02:53:05,VALID,917.401,VALID,0,VALID,97.0385,VALID,0,VALID,19.3323,VALID,107,VALID,0,
2013-08-16, 02:54:05,VALID,917.394,VALID,0,VALID,97.0308,VALID,0,VALID,19.3518,VALID,138,VALID,0,
2013-08-16, 02:55:05,VALID,917.376,VALID,0,VALID,97.0613,VALID,0,VALID,19.3713,VALID,138,VALID,0,
2013-08-16, 02:56:05,VALID,917.38,VALID,0,VALID,97.0461,VALID,0,VALID,19.4298,VALID,138,VALID,0,
2013-08-16, 02:57:05,VALID,917.379,VALID,0,VALID,97.0461,VALID,0,VALID,19.4688,VALID,138,VALID,0,
2013-08-16, 02:58:05,VALID,917.372,VALID,0,VALID,97.0461,VALID,0,VALID,19.4688,VALID,138,VALID,0,
2013-08-16, 02:59:05,VALID,917.379,VALID,0,VALID,97.0385,VALID,0,VALID,19.4883,VALID,138,VALID,0,
2013-08-16, 03:00:05,VALID,917.364,VALID,0,VALID,97.0308,VALID,0,VALID,19.5078,VALID,138,VALID,0,
2013-08-16, 03:01:05,VALID,917.342,VALID,0,VALID,97.0385,VALID,0,VALID,19.5078,VALID,138,VALID,0,
2013-08-16, 03:02:05,VALID,917.365,VALID,0,VALID,97.0537,VALID,0,VALID,19.5093,VALID,138,VALID,0,
2013-08-16, 03:03:05,VALID,917.344,VALID,0,VALID,97.0385,VALID,0,VALID,19.4883,VALID,138,VALID,0,
2013-08-16, 03:04:05,VALID,917.362,VALID,0,VALID,97.0461,VALID,0,VALID,19.5093,VALID,138,VALID,0,
2013-08-16, 03:05:05,VALID,917.343,VALID,0,VALID,97.0537,VALID,0,VALID,19.4688,VALID,138,VALID,0,
2013-08-16, 03:06:05,VALID,917.389,VALID,0,VALID,97.0613,VALID,0,VALID,19.4703,VALID,138,VALID,0,
2013-08-16, 03:07:05,VALID,917.371,VALID,0,VALID,97.0537,VALID,0,VALID,19.4688,VALID,138,VALID,0,
2013-08-16, 03:08:05,VALID,917.436,VALID,0,VALID,97.0537,VALID,0,VALID,19.4313,VALID,138,VALID,0,
2013-08-16, 03:09:05,VALID,917.445,VALID,0,VALID,97.0613,VALID,0,VALID,19.4313,VALID,138,VALID,0,
2013-08-16, 03:10:05,VALID,917.446,VALID,0,VALID,97.0613,VALID,0,VALID,19.4103,VALID,138,VALID,0,
2013-08-16, 03:11:05,VALID,917.463,VALID,0,VALID,97.0918,VALID,0.107441,VALID,19.3698,VALID,138,VALID,0,
2013-08-16, 03:12:05,VALID,917.48,VALID,0,VALID,97.0842,VALID,0.107441,VALID,19.3908,VALID,138,VALID,0,
2013-08-16, 03:13:05,VALID,917.461,VALID,0,VALID,97.0994,VALID,0.107441,VALID,19.3503,VALID,138,VALID,0,
2013-08-16, 03:14:05,VALID,917.483,VALID,0,VALID,97.0537,VALID,0.107441,VALID,19.3518,VALID,138,VALID,0,
2013-08-16, 03:15:05,VALID,917.487,VALID,0,VALID,97.0994,VALID,0,VALID,19.2918,VALID,138,VALID,0,
2013-08-16, 03:16:05,VALID,917.498,VALID,0,VALID,97.0842,VALID,0,VALID,19.2738,VALID,138,VALID,0,
2013-08-16, 03:17:05,VALID,917.471,VALID,0,VALID,97.0994,VALID,0.107441,VALID,19.2139,VALID,138,VALID,0,
2013-08-16, 03:18:05,VALID,917.524,VALID,0,VALID,97.0842,VALID,0.107441,VALID,19.2738,VALID,138,VALID,0,
2013-08-16, 03:19:05,VALID,917.543,VALID,0,VALID,97.1071,VALID,0,VALID,19.2528,VALID,138,VALID,0,
2013-08-16, 03:20:05,VALID,917.536,VALID,0,VALID,97.1071,VALID,0.107441,VALID,19.2334,VALID,138,VALID,0,
2013-08-16, 03:21:05,VALID,917.519,VALID,0,VALID,97.0842,VALID,0.107441,VALID,19.1944,VALID,133,VALID,0,
2013-08-16, 03:22:05,VALID,917.508,VALID,0,VALID,97.0994,VALID,0.107441,VALID,19.1944,VALID,134,VALID,0,
2013-08-16, 03:23:05,VALID,917.514,VALID,0,VALID,97.0994,VALID,0,VALID,19.2153,VALID,133,VALID,0,
2013-08-16, 03:24:05,VALID,917.56,VALID,0,VALID,97.1071,VALID,0,VALID,19.1944,VALID,133,VALID,0,
2013-08-16, 03:25:05,VALID,917.568,VALID,0,VALID,97.1147,VALID,0,VALID,19.1973,VALID,133,VALID,0,
2013-08-16, 03:26:05,VALID,917.58,VALID,0,VALID,97.1071,VALID,0,VALID,19.1763,VALID,133,VALID,0,
2013-08-16, 03:27:05,VALID,917.574,VALID,0,VALID,97.1071,VALID,0,VALID,19.1763,VALID,117,VALID,0,
2013-08-16, 03:28:05,VALID,917.569,VALID,0,VALID,97.1147,VALID,0,VALID,19.1973,VALID,116,VALID,0,
2013-08-16, 03:29:05,VALID,917.561,VALID,0,VALID,97.0994,VALID,0,VALID,19.1778,VALID,115,VALID,0,
2013-08-16, 03:30:05,VALID,917.546,VALID,0,VALID,97.1223,VALID,0,VALID,19.1568,VALID,114,VALID,0,
2013-08-16, 03:31:04,VALID,917.554,VALID,0,VALID,97.1223,VALID,0,VALID,19.1778,VALID,109,VALID,0,
2013-08-16, 03:32:04,VALID,917.522,VALID,0,VALID,97.1299,VALID,0,VALID,19.1778,VALID,112,VALID,0,
2013-08-16, 03:33:04,VALID,917.523,VALID,0,VALID,97.1604,VALID,0,VALID,19.1778,VALID,112,VALID,0,
2013-08-16, 03:34:04,VALID,917.546,VALID,0,VALID,97.1299,VALID,0,VALID,19.1583,VALID,101,VALID,0,
2013-08-16, 03:35:04,VALID,917.476,VALID,0,VALID,97.1376,VALID,0,VALID,19.1583,VALID,102,VALID,0,
2013-08-16, 03:36:04,VALID,917.517,VALID,0,VALID,97.1452,VALID,0,VALID,19.1373,VALID,102,VALID,0,
2013-08-16, 03:37:04,VALID,917.483,VALID,0,VALID,97.1376,VALID,0,VALID,19.1388,VALID,131,VALID,0,
2013-08-16, 03:38:04,VALID,917.483,VALID,0,VALID,97.1604,VALID,0,VALID,19.1388,VALID,135,VALID,0,
2013-08-16, 03:39:04,VALID,917.481,VALID,0,VALID,97.1452,VALID,0,VALID,19.1178,VALID,117,VALID,0,
2013-08-16, 03:40:04,VALID,917.43,VALID,0,VALID,97.1452,VALID,0,VALID,19.1178,VALID,117,VALID,0,
2013-08-16, 03:41:04,VALID,917.446,VALID,0,VALID,97.1452,VALID,0,VALID,19.0983,VALID,128,VALID,0,
2013-08-16, 03:42:04,VALID,917.421,VALID,0,VALID,97.1681,VALID,0,VALID,19.1193,VALID,127,VALID,0,
2013-08-16, 03:43:04,VALID,917.409,VALID,0,VALID,97.1528,VALID,0,VALID,19.1178,VALID,127,VALID,0,
2013-08-16, 03:44:04,VALID,917.415,VALID,0,VALID,97.1528,VALID,0.107441,VALID,19.1178,VALID,102,VALID,0,
2013-08-16, 03:45:04,VALID,917.43,VALID,0,VALID,97.1452,VALID,0,VALID,19.1164,VALID,102,VALID,0,
2013-08-16, 03:46:04,VALID,917.426,VALID,0,VALID,97.1681,VALID,0,VALID,19.1178,VALID,105,VALID,0,
2013-08-16, 03:47:04,VALID,917.44,VALID,0,VALID,97.1604,VALID,0.107441,VALID,19.0969,VALID,97,VALID,0,
2013-08-16, 03:48:04,VALID,917.391,VALID,0,VALID,97.1833,VALID,0.107441,VALID,19.1164,VALID,97,VALID,0,
2013-08-16, 03:49:04,VALID,917.418,VALID,0,VALID,97.1833,VALID,0,VALID,19.0969,VALID,97,VALID,0,
2013-08-16, 03:50:04,VALID,917.444,VALID,0,VALID,97.1681,VALID,0.107441,VALID,19.0983,VALID,98,VALID,0,
2013-08-16, 03:51:04,VALID,917.451,VALID,0,VALID,97.1757,VALID,0.107441,VALID,19.0983,VALID,98,VALID,0,
2013-08-16, 03:52:04,VALID,917.419,VALID,0,VALID,97.1681,VALID,0,VALID,19.0579,VALID,98,VALID,0,
2013-08-16, 03:53:04,VALID,917.461,VALID,0,VALID,97.1757,VALID,0,VALID,19.0384,VALID,98,VALID,0,
2013-08-16, 03:54:04,VALID,917.439,VALID,0,VALID,97.1757,VALID,0,VALID,19.0593,VALID,98,VALID,0,
2013-08-16, 03:55:04,VALID,917.406,VALID,0,VALID,97.1833,VALID,0.107441,VALID,19.0189,VALID,98,VALID,0,
2013-08-16, 03:56:04,VALID,917.443,VALID,0,VALID,97.1986,VALID,0.107441,VALID,19.0189,VALID,98,VALID,0,
2013-08-16, 03:57:04,VALID,917.384,VALID,0,VALID,97.1986,VALID,0,VALID,19.0203,VALID,98,VALID,0,
2013-08-16, 03:58:04,VALID,917.391,VALID,0,VALID,97.1986,VALID,0,VALID,19.0203,VALID,98,VALID,0,
2013-08-16, 03:59:04,VALID,917.4,VALID,0,VALID,97.2062,VALID,0,VALID,18.9994,VALID,98,VALID,0,